Probability
29 29 29 32 32 3 0 0 0 0 0 0 0 0 0 0 0 0 3 0 3 6 16 26 55 61 61 58 55 61 65 61 68 65 58 68 68 68 65 74 77 71 71 68 71 68 68 65 65
23 29 29 26 10 0 0 0 0 0 0 0 0 0 0 0 0 0 3 0 3 6 16 23 55 58 61 58 65 61 65 61 65 65 65 61 58 58 65 68 74 68 68 58 68 68 65 52 55
26 35 26 6 0 0 0 0 0 0 0 0 0 0 0 0 0 3 3 3 6 10 26 32 58 61 65 68 68 65 71 71 65 65 65 61 58 58 58 65 68 61 61 61 65 68 58 52 55
39 32 23 0 0 0 0 0 0 0 0 0 0 0 0 0 3 3 3 3 3 16 19 42 61 58 61 65 68 68 77 68 68 61 61 61 61 65 68 58 61 61 55 61 61 61 58 55 52
32 23 0 0 0 0 0 0 0 0 0 0 0 0 0 0 0 0 3 6 6 13 26 35 61 61 58 61 65 68 68 71 68 65 65 65 68 71 61 55 55 55 58 58 65 61 61 55 45
23 10 3 0 0 0 0 0 0 0 0 0 0 0 0 0 0 0 3 10 10 16 23 35 45 52 55 58 68 65 65 55 68 61 61 55 58 58 65 52 45 48 45 48 55 55 58 58 45
16 0 0 0 0 0 0 0 0 0 0 0 0 0 0 0 3 0 0 6 10 16 19 32 39 42 42 52 55 52 55 61 65 68 65 61 61 61 55 55 45 39 42 42 48 45 45 35 35
16 0 0 0 0 0 0 0 0 0 0 0 0 0 0 3 0 0 6 10 6 10 19 29 29 35 35 35 55 55 65 61 68 71 61 61 61 58 48 52 52 48 48 52 45 45 39 26 29
13 3 0 0 0 0 0 0 0 0 0 0 0 0 0 3 0 0 3 13 13 16 19 23 26 39 39 26 35 58 55 58 58 65 65 58 26 23 35 39 55 48 55 52 52 42 29 26 32
3 0 0 0 0 0 0 0 0 0 0 0 0 0 3 6 3 6 6 6 10 16 13 26 23 39 35 29 52 55 42 48 58 65 52 42 48 42 19 32 45 42 52 39 39 42 26 23 26
0 0 0 0 0 0 0 0 0 0 0 0 0 3 3 6 6 6 3 6 10 16 10 19 29 39 32 42 52 52 42 65 52 55 55 58 39 35 32 39 55 52 32 23 29 26 23 19 29
0 0 0 0 0 0 0 0 0 0 0 0 0 6 3 6 3 3 3 6 13 16 13 16 19 32 48 55 45 48 48 48 45 52 48 48 42 45 45 55 42 48 48 42 19 29 26 29 29
0 0 0 0 0 0 0 0 0 0 0 0 0 6 6 10 10 6 3 3 19 26 13 19 29 45 58 58 55 39 48 45 39 58 45 48 35 45 45 68 58 39 32 32 42 39 29 42 35
0 0 0 0 0 0 0 0 0 0 0 0 10 10 10 6 6 3 10 10 19 23 23 19 26 39 55 65 68 58 35 55 45 52 52 52 39 55 48 52 52 42 45 39 42 42 48 42 42
0 0 0 0 0 0 0 0 0 0 0 0 10 10 10 10 6 6 6 16 16 26 26 29 26 39 55 45 42 39 35 29 45 45 55 55 42 52 48 48 42 45 45 52 52 52 48 61 42
0 0 0 0 0 0 0 0 0 0 0 0 13 10 10 10 6 6 10 16 16 19 29 32 13 29 48 55 55 35 35 32 42 45 48 52 48 48 52 45 42 48 42 48 61 52 45 45 39
0 0 0 0 0 0 0 0 3 3 3 6 13 13 10 13 13 10 10 10 29 39 42 39 35 42 45 52 55 55 52 52 42 55 55 52 42 42 42 55 61 52 48 48 45 58 55 42 39
0 0 0 0 0 0 0 3 3 3 3 3 6 13 13 10 13 6 3 13 35 35 48 48 48 58 55 55 61 58 55 52 45 48 61 55 42 52 55 52 61 42 52 55 65 71 58 45 42
0 0 0 0 0 0 3 3 3 6 6 6 10 13 13 10 6 3 6 10 26 39 55 58 55 65 71 68 58 52 45 45 45 52 58 61 48 52 58 42 58 55 52 58 55 58 52 35 39
0 0 0 0 0 0 3 3 3 6 6 6 6 13 10 13 10 6 13 16 29 39 61 61 61 61 74 71 71 68 58 39 39 45 58 58 55 52 39 61 42 61 68 68 65 71 45 29 35
0 0 0 0 0 3 3 0 0 6 6 6 10 13 13 6 16 13 13 23 23 32 48 45 55 61 71 71 68 65 68 52 39 45 65 61 58 48 48 45 45 55 45 61 65 68 58 42 39
0 0 0 0 0 0 0 0 3 3 6 13 13 13 16 13 13 16 16 32 32 35 48 52 65 65 68 68 68 61 61 52 48 61 58 68 58 55 48 52 55 65 48 65 55 48 48 55 39
0 0 0 0 0 0 0 0 0 10 10 13 13 13 16 13 16 19 19 32 35 29 39 48 68 71 68 68 71 71 48 52 48 55 68 68 61 58 52 48 55 61 52 61 65 61 52 39 45
0 0 0 0 0 0 0 0 0 6 6 6 19 13 19 19 26 26 26 39 48 42 45 48 61 74 74 71 68 77 68 65 65 71 71 68 65 61 45 48 55 61 61 68 65 61 58 52 55
0 0 0 0 0 0 0 0 0 3 6 10 13 19 23 19 26 32 35 42 55 52 48 48 61 68 68 68 68 71 71 71 68 68 65 61 48 52 61 39 61 58 58 65 71 61 61 55 58
0 0 0 0 0 0 0 0 0 3 10 10 13 13 16 29 32 32 35 42 52 55 58 58 68 71 65 65 65 68 68 65 55 65 55 52 48 35 48 58 58 58 55 48 58 45 58 58 65
0 0 0 0 0 0 0 0 3 3 10 13 13 10 16 26 32 35 26 32 48 61 61 61 71 71 74 68 68 71 71 71 71 71 68 55 61 48 48 55 58 58 61 58 61 61 61 65 65
0 0 3 0 0 0 0 0 0 0 3 13 13 13 16 16 19 23 29 32 35 52 61 61 68 74 74 74 74 65 74 77 77 71 65 65 61 55 52 52 58 58 58 61 65 65 65 61 61
0 3 3 0 0 0 0 0 0 3 3 10 6 16 13 16 16 19 32 42 48 45 55 58 65 68 74 71 77 77 77 74 74 74 68 61 58 58 58 48 58 58 55 58 65 65 61 58 52
0 0 0 0 0 0 0 0 0 0 0 0 3 10 16 19 16 19 26 42 48 48 42 58 61 61 71 74 74 77 77 74 74 68 65 61 58 55 52 48 45 48 48 48 52 52 52 52 52
Height
5893 5892 5892 5893 5894 5894 5892 5891 5890 5889 5888 5887 5886 5885 5885 5885 5885 5887 5884 5882 5882 5882 5882 5882 5883 5883 5884 5885 5886 5887 5888 5888 5889 5889 5889 5890 5891 5891 5892 5893 5893 5894 5894 5895 5895 5895 5895 5895 5895
5895 5894 5895 5895 5896 5896 5894 5893 5892 5890 5889 5888 5887 5886 5885 5885 5884 5884 5883 5882 5882 5882 5882 5883 5883 5884 5885 5886 5887 5888 5889 5889 5890 5890 5890 5891 5891 5892 5893 5893 5894 5895 5895 5895 5896 5896 5896 5895 5895
5897 5897 5898 5898 5897 5897 5896 5894 5893 5892 5890 5889 5888 5887 5886 5885 5885 5884 5884 5883 5883 5883 5883 5883 5884 5885 5886 5887 5888 5889 5889 5890 5890 5891 5891 5892 5892 5893 5893 5894 5895 5895 5896 5896 5896 5896 5896 5896 5896
5899 5900 5900 5901 5899 5898 5897 5896 5894 5893 5891 5890 5889 5888 5886 5886 5885 5885 5884 5884 5883 5884 5884 5884 5885 5886 5887 5888 5889 5889 5890 5891 5891 5892 5892 5893 5893 5894 5894 5895 5895 5896 5896 5897 5897 5897 5896 5896 5896
5901 5902 5903 5902 5901 5900 5898 5897 5896 5894 5893 5891 5890 5889 5887 5887 5886 5885 5885 5885 5884 5884 5885 5886 5886 5887 5888 5888 5889 5890 5891 5892 5892 5893 5893 5893 5893 5894 5895 5895 5896 5896 5897 5897 5897 5897 5897 5897 5896
5904 5904 5906 5904 5903 5901 5900 5898 5897 5896 5894 5893 5891 5890 5889 5888 5887 5886 5886 5885 5885 5885 5886 5886 5887 5888 5889 5889 5890 5891 5892 5893 5893 5893 5894 5894 5894 5895 5896 5896 5897 5897 5897 5898 5898 5897 5897 5897 5897
5907 5907 5907 5906 5905 5903 5902 5900 5899 5897 5896 5895 5893 5892 5890 5889 5888 5887 5886 5886 5886 5886 5887 5888 5888 5889 5890 5891 5891 5892 5892 5893 5894 5894 5894 5895 5895 5896 5896 5897 5897 5898 5898 5898 5898 5898 5898 5898 5897
5909 5910 5909 5908 5907 5905 5904 5902 5901 5899 5898 5897 5895 5894 5892 5890 5889 5888 5887 5887 5887 5888 5888 5889 5890 5891 5891 5892 5892 5893 5893 5894 5894 5895 5895 5896 5896 5896 5897 5897 5898 5898 5898 5898 5898 5898 5898 5898 5897
5911 5913 5912 5910 5909 5907 5905 5904 5903 5901 5900 5898 5897 5895 5894 5892 5890 5889 5888 5888 5889 5889 5890 5891 5891 5892 5893 5893 5894 5894 5894 5895 5895 5896 5896 5896 5896 5897 5897 5898 5898 5898 5899 5899 5899 5898 5898 5898 5897
5913 5914 5913 5912 5910 5909 5907 5906 5905 5903 5902 5900 5899 5897 5895 5894 5892 5891 5891 5890 5890 5890 5891 5892 5893 5893 5894 5894 5895 5895 5895 5895 5896 5896 5896 5897 5897 5898 5898 5898 5899 5899 5899 5899 5899 5898 5898 5898 5897
5915 5915 5915 5913 5912 5911 5909 5908 5907 5905 5904 5902 5901 5899 5898 5896 5895 5894 5893 5893 5893 5892 5892 5893 5894 5895 5896 5896 5896 5896 5896 5896 5897 5897 5897 5897 5898 5898 5899 5899 5899 5899 5899 5899 5899 5899 5899 5898 5897
5917 5917 5916 5915 5914 5913 5911 5910 5909 5907 5906 5905 5903 5901 5900 5899 5897 5896 5896 5896 5896 5896 5896 5896 5897 5897 5897 5898 5898 5898 5898 5898 5898 5898 5898 5898 5898 5899 5899 5899 5900 5900 5900 5899 5899 5899 5899 5898 5897
5919 5918 5918 5917 5916 5915 5913 5912 5911 5909 5908 5907 5905 5903 5902 5901 5900 5899 5899 5898 5899 5899 5899 5899 5899 5900 5900 5900 5900 5899 5899 5899 5899 5899 5899 5899 5899 5899 5900 5900 5901 5900 5900 5900 5900 5900 5899 5898 5898
5920 5920 5920 5919 5918 5916 5915 5914 5913 5911 5910 5909 5907 5906 5904 5903 5902 5902 5901 5901 5901 5901 5901 5901 5901 5901 5901 5901 5901 5901 5901 5901 5900 5900 5900 5900 5900 5900 5901 5901 5901 5901 5901 5901 5901 5900 5899 5899 5898
5922 5922 5922 5921 5920 5918 5918 5917 5915 5913 5912 5911 5909 5908 5907 5906 5905 5904 5904 5904 5903 5903 5903 5903 5903 5903 5903 5903 5903 5903 5902 5902 5902 5901 5901 5901 5901 5901 5902 5902 5902 5902 5902 5901 5901 5900 5900 5900 5899
5923 5924 5924 5923 5921 5920 5921 5920 5918 5916 5914 5913 5912 5911 5910 5908 5907 5907 5906 5906 5906 5905 5905 5905 5905 5905 5905 5905 5905 5904 5904 5904 5903 5903 5903 5903 5902 5902 5903 5903 5903 5902 5902 5902 5902 5901 5901 5900 5899
5925 5926 5926 5925 5923 5922 5922 5921 5919 5918 5917 5915 5914 5913 5912 5911 5910 5909 5908 5908 5908 5907 5907 5907 5907 5907 5907 5906 5906 5906 5906 5905 5905 5905 5904 5904 5904 5903 5904 5904 5903 5903 5903 5903 5902 5901 5901 5900 5899
5927 5927 5926 5926 5924 5924 5923 5922 5921 5919 5918 5917 5916 5915 5914 5913 5912 5911 5910 5910 5909 5909 5909 5909 5909 5909 5908 5908 5908 5907 5907 5907 5906 5906 5906 5906 5905 5905 5905 5905 5904 5904 5903 5903 5902 5902 5901 5900 5899
5926 5927 5927 5927 5926 5925 5924 5924 5922 5921 5920 5919 5918 5917 5916 5915 5914 5913 5912 5912 5911 5911 5911 5910 5910 5910 5909 5909 5909 5909 5908 5908 5908 5907 5907 5906 5906 5906 5906 5906 5905 5905 5904 5904 5903 5902 5901 5900 5900
5925 5927 5927 5927 5926 5926 5926 5925 5924 5923 5921 5920 5920 5919 5918 5917 5916 5915 5914 5913 5913 5912 5912 5912 5911 5911 5911 5910 5910 5910 5909 5909 5909 5908 5908 5907 5907 5907 5907 5906 5906 5905 5905 5904 5904 5903 5902 5901 5900
5925 5926 5927 5927 5927 5927 5927 5927 5926 5924 5923 5922 5921 5920 5919 5918 5918 5916 5915 5914 5914 5914 5913 5913 5913 5912 5912 5912 5911 5911 5910 5910 5910 5909 5909 5908 5908 5908 5907 5907 5906 5905 5905 5904 5904 5903 5902 5901 5900
5923 5925 5926 5926 5927 5928 5928 5929 5927 5925 5924 5923 5922 5921 5920 5919 5919 5918 5917 5916 5915 5915 5914 5914 5914 5913 5913 5913 5912 5912 5911 5911 5911 5910 5909 5909 5909 5908 5908 5907 5906 5906 5905 5905 5904 5903 5902 5901 5900
5922 5923 5924 5925 5926 5928 5928 5929 5929 5926 5925 5924 5923 5922 5921 5920 5919 5919 5918 5917 5916 5916 5915 5915 5915 5914 5914 5914 5913 5913 5912 5912 5911 5911 5910 5910 5909 5908 5908 5907 5906 5906 5905 5904 5904 5903 5902 5900 5899
5920 5922 5923 5924 5926 5928 5927 5928 5928 5926 5925 5925 5924 5923 5922 5921 5920 5919 5918 5918 5917 5916 5916 5915 5915 5915 5915 5914 5914 5913 5913 5912 5912 5911 5910 5910 5909 5908 5908 5907 5906 5906 5905 5904 5903 5902 5901 5900 5899
5918 5921 5924 5925 5926 5927 5926 5926 5927 5925 5925 5924 5923 5923 5922 5921 5920 5920 5919 5918 5917 5917 5916 5916 5915 5915 5915 5914 5914 5914 5913 5912 5912 5911 5911 5910 5909 5908 5908 5907 5906 5905 5904 5903 5902 5901 5900 5899 5898
5915 5919 5922 5924 5925 5926 5924 5924 5925 5924 5923 5923 5922 5922 5921 5921 5920 5919 5918 5917 5917 5916 5916 5915 5915 5915 5914 5914 5914 5913 5913 5912 5912 5911 5910 5910 5909 5908 5907 5906 5906 5905 5904 5903 5902 5901 5899 5898 5897
5912 5915 5918 5920 5921 5922 5923 5922 5922 5921 5921 5921 5921 5920 5920 5919 5919 5918 5918 5917 5916 5915 5915 5914 5914 5914 5914 5913 5913 5913 5912 5912 5911 5910 5910 5909 5908 5907 5906 5906 5905 5904 5903 5902 5901 5900 5898 5897 5895
5909 5911 5914 5916 5918 5920 5920 5920 5921 5919 5919 5919 5919 5919 5918 5918 5917 5917 5916 5915 5915 5914 5913 5913 5913 5913 5913 5912 5912 5911 5911 5910 5910 5909 5908 5907 5907 5906 5905 5904 5903 5902 5901 5900 5899 5898 5896 5895 5894
5904 5907 5909 5912 5913 5916 5918 5920 5917 5917 5917 5917 5917 5917 5917 5916 5916 5915 5915 5914 5913 5913 5912 5912 5911 5911 5911 5910 5910 5909 5909 5908 5908 5907 5906 5906 5905 5904 5903 5902 5901 5900 5899 5898 5897 5896 5894 5893 5891
5899 5902 5905 5908 5909 5910 5913 5916 5913 5914 5914 5914 5914 5914 5914 5914 5913 5913 5912 5912 5911 5911 5910 5910 5909 5909 5908 5908 5907 5907 5907 5906 5905 5905 5904 5903 5903 5902 5901 5900 5899 5898 5897 5896 5894 5893 5892 5890 5888
Wind_Speed
13 13 13 13 14 13 11 11 11 11 11 10 9 8 7 7 6 6 6 6 6 7 7 7 8 9 9 9 10 10 9 10 10 9 9 10 9 9 9 8 8 7 7 6 5 4 4 3 3
14 13 13 14 14 12 11 11 11 11 11 10 10 9 8 7 7 7 7 7 7 8 8 8 8 9 9 10 10 10 9 9 9 9 9 9 9 9 8 8 7 7 6 5 4 3 3 2 2
13 13 13 14 13 12 11 12 11 11 11 10 10 9 8 7 7 7 7 7 8 8 8 8 8 9 10 10 10 10 10 9 9 9 9 8 8 8 8 7 6 6 5 4 3 2 2 2 1
13 13 13 13 12 12 11 11 11 11 11 10 10 10 9 8 7 7 8 8 8 9 9 10 9 9 10 10 10 10 10 9 9 9 8 8 7 8 7 6 6 5 4 3 2 1 1 1 1
13 13 13 12 11 11 11 11 11 12 11 11 11 10 10 9 8 8 8 8 8 9 10 10 9 9 9 9 10 11 10 9 8 7 7 7 7 6 6 6 5 5 3 2 2 1 1 1 1
12 13 12 11 11 11 11 11 12 11 11 11 11 10 10 10 9 9 8 8 9 9 9 9 9 9 9 9 10 10 9 9 8 7 6 7 7 6 5 5 5 4 3 2 1 1 1 1 1
13 13 12 12 11 11 11 12 11 11 12 11 11 11 10 10 9 9 8 8 8 9 9 9 9 9 9 9 9 9 9 8 7 6 5 5 5 6 5 4 4 4 3 2 1 0 0 1 1
12 14 12 12 11 11 12 12 12 12 12 12 12 11 11 10 9 9 9 9 9 9 9 9 10 9 9 9 8 8 8 8 7 6 5 5 5 5 5 4 3 3 3 2 1 0 1 1 2
12 13 11 11 11 12 12 13 12 12 12 12 12 12 12 11 10 9 9 9 9 8 9 9 9 9 9 9 8 8 7 7 6 6 5 4 4 5 5 4 3 3 2 1 0 1 1 1 2
12 11 10 11 11 12 12 13 13 13 13 13 13 13 12 12 12 11 11 11 10 9 10 10 9 9 9 9 8 7 6 6 5 5 4 4 4 4 4 4 3 3 2 0 1 1 1 2 2
11 11 11 11 11 11 12 13 13 13 13 13 13 13 13 13 13 12 13 13 12 12 11 11 10 9 9 9 8 7 6 5 5 4 4 4 4 4 5 4 3 2 1 0 1 1 2 2 2
9 9 9 10 11 11 12 13 13 13 13 12 12 12 12 12 12 12 12 12 12 13 12 11 11 10 9 8 7 7 6 6 6 5 5 5 5 5 5 5 4 3 2 2 2 2 2 3 2
8 8 8 9 10 10 11 12 12 12 12 12 12 12 12 12 11 12 12 11 11 12 12 11 10 10 9 8 7 6 6 5 5 5 6 5 5 5 5 5 3 2 2 2 2 3 3 3 2
8 7 7 8 9 10 11 11 11 12 11 11 12 11 11 11 11 11 11 10 10 10 11 11 10 10 9 8 7 6 6 5 5 5 6 6 5 5 5 4 3 2 2 2 2 2 3 3 3
7 7 6 6 7 8 10 11 11 11 11 10 11 11 11 11 10 10 10 9 9 9 9 9 9 9 9 8 8 7 6 7 7 7 6 6 7 6 5 4 3 3 3 2 2 3 3 3 3
6 6 5 5 6 7 8 10 10 10 10 9 9 9 10 10 10 9 9 9 8 8 8 8 8 8 8 8 8 8 8 7 7 7 7 6 6 5 4 3 3 3 3 2 2 2 2 2 2
5 4 3 4 6 7 8 8 9 9 9 9 8 8 8 9 9 8 8 8 8 8 8 8 8 7 7 8 7 7 7 7 7 6 5 5 5 4 4 3 3 3 3 2 2 3 2 2 2
4 4 3 3 4 6 7 7 8 8 8 8 7 7 7 7 7 7 7 7 7 7 7 7 7 7 7 7 7 6 7 6 6 6 5 5 5 4 4 4 3 3 3 2 2 2 2 2 2
4 3 2 3 3 5 6 6 6 7 7 7 6 6 6 6 6 6 6 7 7 7 6 6 6 6 7 6 6 6 6 6 5 5 5 5 4 4 4 4 4 3 3 3 3 3 2 2 3
4 3 2 1 2 3 4 5 5 6 7 6 6 6 6 5 6 6 6 6 6 6 6 6 6 6 6 6 6 6 6 5 5 5 4 4 3 3 3 3 2 3 3 3 4 4 4 3 4
5 5 4 2 0 1 3 4 4 5 5 5 5 5 5 5 5 5 5 4 4 5 5 5 5 5 5 5 5 5 5 5 5 5 4 4 3 3 3 3 3 2 3 3 3 4 4 4 4
8 6 5 4 2 0 1 2 3 3 4 4 4 4 4 4 4 4 4 4 3 3 4 4 4 4 4 4 4 4 4 4 4 4 4 4 3 3 3 3 3 2 2 2 3 4 5 5 5
9 8 7 6 3 2 2 1 2 2 2 3 3 3 3 3 3 3 3 3 2 2 2 3 3 3 3 3 3 3 3 4 4 4 4 3 3 3 3 2 3 3 3 3 4 5 5 5 6
10 8 7 6 5 5 5 3 4 3 2 2 2 3 3 3 3 3 3 2 2 1 0 1 1 1 2 2 2 2 2 2 3 3 3 3 3 3 3 3 4 4 5 5 5 5 6 6 7
12 9 8 7 7 8 7 5 5 5 4 4 3 3 3 3 3 3 3 3 2 1 1 1 1 1 1 1 1 1 1 1 2 2 2 3 3 4 4 4 4 5 6 5 5 6 6 7 8
13 12 10 9 9 9 8 7 6 6 5 5 5 5 5 4 4 4 4 4 3 3 2 2 2 3 3 3 3 3 3 2 3 3 3 3 4 5 5 5 5 6 6 6 6 7 8 8 9
15 14 13 11 10 9 10 8 7 7 7 7 6 6 6 6 5 5 5 5 4 4 4 4 4 4 4 4 4 4 5 4 4 4 5 4 5 6 6 6 6 8 8 8 8 9 9 10 11
19 16 14 12 11 11 11 9 8 8 8 8 8 7 7 7 7 7 6 6 6 5 5 6 6 6 6 6 6 6 6 6 6 6 6 6 7 7 8 8 8 9 10 10 10 10 11 12 12
21 20 18 16 15 12 12 12 11 9 9 9 9 9 9 9 8 8 8 8 7 7 7 7 7 7 7 7 7 8 7 8 8 8 8 8 8 9 9 9 10 10 11 11 12 12 13 14 14
24 22 20 18 17 15 13 14 12 11 10 11 10 10 10 10 10 10 10 10 9 9 8 8 8 8 8 8 8 9 9 9 10 10 10 10 10 10 10 11 12 12 13 13 13 14 15 15 15
Wind_Direction
82 80 79 81 77 80 87 90 89 85 86 89 90 91 93 98 107 109 111 119 129 138 139 139 138 144 143 141 140 138 134 134 133 130 134 136 137 139 138 138 134 136 131 130 126 122 121 117 109
79 79 81 81 79 79 83 87 88 87 86 85 86 86 88 96 103 104 110 111 121 130 136 138 140 141 140 142 140 139 136 136 135 134 135 133 131 135 139 143 145 146 141 135 125 118 110 97 87
81 81 83 82 82 83 83 83 84 85 83 83 83 83 87 95 103 106 112 112 117 124 134 137 139 140 142 144 142 139 138 138 138 138 135 132 131 134 141 143 151 151 153 146 135 128 110 91 77
85 84 81 79 78 78 79 82 81 82 80 80 80 78 83 90 97 104 113 112 117 126 133 137 141 144 143 144 142 142 143 141 141 139 135 131 129 132 140 145 151 148 152 153 152 142 109 94 67
86 83 78 75 75 77 77 77 79 79 76 77 79 77 78 83 91 101 110 116 118 126 134 136 136 141 149 148 141 141 143 142 142 141 138 138 133 133 143 144 141 146 144 142 156 155 133 64 42
84 84 85 78 77 76 75 76 78 76 75 75 76 74 74 83 89 94 106 116 119 124 130 131 134 135 140 145 145 143 142 142 142 143 137 142 142 142 140 140 140 147 152 157 134 117 91 45 29
85 87 86 81 77 74 76 75 75 75 76 75 75 72 70 76 86 92 100 112 121 128 134 134 135 136 140 144 145 146 146 147 143 137 134 139 141 142 139 138 136 139 144 143 130 109 338 358 7
88 87 83 81 77 75 79 77 75 74 75 73 72 69 66 72 83 91 99 108 117 126 132 137 137 138 142 142 142 145 146 150 148 142 134 139 143 147 150 143 144 150 150 147 150 304 302 336 2
88 85 85 85 79 77 78 77 75 74 73 71 71 70 67 73 79 86 96 108 115 122 130 135 137 135 136 138 140 144 147 152 148 146 142 142 151 156 160 158 150 147 152 160 1 349 337 354 360
88 89 88 86 79 78 77 76 74 73 73 72 71 71 71 75 79 86 94 101 106 114 126 130 133 130 131 134 133 137 145 149 144 145 145 145 149 162 163 149 147 149 149 154 357 348 352 339 336
92 88 85 82 77 77 75 73 73 71 71 72 72 73 74 75 80 88 94 101 102 106 119 124 124 124 127 130 129 129 134 137 138 138 144 145 145 143 149 143 129 132 132 66 23 8 7 356 344
95 89 82 76 70 73 73 73 72 69 69 72 74 75 74 75 78 88 96 101 102 105 108 114 115 116 118 122 122 124 125 124 126 126 128 138 140 142 140 131 119 110 94 65 22 16 18 18 5
97 91 82 76 71 70 71 70 71 68 68 70 73 74 72 74 78 86 95 101 105 107 107 109 110 113 114 114 116 119 117 116 119 120 124 130 133 140 138 126 120 112 91 63 46 28 26 16 2
102 92 84 77 73 71 70 68 68 66 66 68 70 71 75 77 81 86 93 102 104 107 108 111 111 112 111 110 111 110 110 111 106 102 108 118 123 129 123 118 112 102 91 93 63 33 17 6 14
101 90 84 78 73 72 70 67 64 63 61 65 70 72 76 79 80 85 92 97 103 108 109 108 108 105 102 99 97 97 98 99 99 101 105 112 115 111 111 109 95 91 92 82 54 52 38 19 10
102 85 74 81 80 80 71 63 64 64 60 62 67 72 76 78 78 83 88 94 100 105 110 110 108 106 102 97 94 96 98 97 98 100 100 101 103 106 105 104 96 89 88 85 70 61 49 31 15
104 94 94 91 88 79 69 64 62 62 60 59 60 67 74 77 80 85 91 93 96 99 103 106 108 108 104 102 97 92 92 95 93 96 97 96 91 96 105 112 94 93 99 98 86 81 61 42 24
136 116 106 97 92 79 71 64 60 61 62 63 60 62 64 70 79 88 93 96 95 97 101 101 104 105 106 103 98 93 88 89 86 92 93 98 94 88 85 80 85 95 97 95 84 65 58 33 7
158 144 128 105 91 77 70 62 54 57 63 62 58 58 59 64 72 83 88 96 98 95 96 98 100 99 99 97 93 88 85 81 81 83 87 90 98 92 81 75 68 60 56 53 42 25 12 358 356
179 178 187 135 82 65 58 54 51 54 58 59 64 62 59 60 69 73 77 87 94 93 93 94 94 95 96 93 88 82 79 75 74 71 80 85 91 84 73 63 64 50 41 38 31 20 3 352 352
201 201 206 219 176 47 57 40 39 41 48 53 59 56 53 51 58 62 67 75 94 96 94 91 89 88 92 94 85 79 75 74 76 75 76 70 65 58 56 59 55 52 47 36 17 6 357 353 346
215 212 209 213 186 344 93 57 6 28 36 43 48 45 43 41 41 48 56 59 79 100 100 92 89 87 87 89 81 78 77 73 72 69 64 65 55 49 44 42 29 20 15 8 359 353 349 348 347
218 217 217 217 218 230 250 186 290 327 12 22 26 22 21 19 21 27 34 41 51 80 111 95 83 78 75 75 73 79 76 67 63 56 49 54 47 38 30 16 8 2 355 348 342 341 344 342 336
218 217 224 233 232 246 244 227 253 276 300 333 344 353 356 355 356 3 8 9 12 28 139 78 49 64 68 67 67 73 55 46 48 42 35 35 25 13 12 2 360 355 345 339 336 334 333 329 327
219 219 233 244 249 252 251 247 248 260 267 278 298 313 322 334 335 338 337 340 333 329 327 298 319 330 359 7 355 341 344 349 348 349 356 357 351 348 350 344 344 342 341 338 338 336 333 329 328
223 222 226 233 242 255 259 250 252 255 260 264 274 291 295 298 310 312 317 320 315 298 281 277 275 281 284 287 293 296 299 304 299 308 315 321 329 334 328 327 327 331 331 331 332 331 331 330 328
228 226 227 232 239 249 255 258 261 258 256 258 263 276 283 282 289 296 298 301 303 291 276 273 272 274 278 278 279 281 283 282 286 292 296 305 314 316 313 312 309 314 320 324 324 324 326 326 323
229 229 229 228 236 245 255 255 256 255 254 254 259 268 274 278 279 286 286 287 290 293 283 276 274 269 270 272 274 275 276 277 280 285 291 296 302 307 307 304 304 309 315 319 319 320 322 321 320
232 233 235 235 237 241 250 252 250 252 253 252 261 267 271 274 274 279 279 278 281 285 288 283 277 276 273 274 275 276 277 277 278 279 280 285 294 300 303 303 302 303 308 311 313 315 316 316 316
233 234 235 237 241 241 248 255 250 250 253 253 258 262 267 269 268 273 274 272 274 277 279 283 280 277 277 275 275 277 279 281 278 276 279 284 290 294 296 298 300 300 302 305 307 308 310 311 310